[[{"header":{"parameterUnit":"m.s-1","parameterCategory":1,"la1":30.2991,"la2":30.254,"lo1":-89.0895,"lo2":-89.0444,"dy":0.0017,"dx":0.0017,"nx":28,"ny":28,"refTime":"2024-12-05T09:00:00:Z","depth":0,"parameterNumber":2,"parameterNumberName":"U-component_of_WINDS"},"data":[0,0,0,0,0,0,0,0,0,0,0,0,0,0,0,0,0,0,0,0,0,0,0,0,0,0,0,0,0,0,0,0,0,0,0,0,0,0,0,0,0,0,0,0,0,0,0,0,0,0,0,0,0,0,0,0,0,0,-2.1566,-2.1566,0,-2.16,-2.16,-2.16,-2.1534,-2.1532,-2.153,-2.1528,-2.1563,-2.1566,-2.1569,0,0,0,0,0,0,0,0,0,0,0,0,0,-2.1443,-2.1446,-2.1566,-2.1566,-2.1567,-2.1599,-2.16,-2.16,-2.1535,-2.1532,-2.1529,-2.1527,-2.1562,-2.1565,-2.1569,0,0,0,0,0,0,0,0,0,0,0,0,0,-2.1489,-2.1447,-2.1566,-2.1538,-2.1535,-2.1599,-2.16,-2.16,-2.1535,-2.1532,-2.1529,-2.1525,-2.1561,-2.1565,-2.1569,-2.1662,0,0,-2.1583,-2.1585,0,0,0,0,0,0,0,0,-2.1486,-2.1493,-2.1541,-2.154,-2.1537,-2.1559,-2.157,-2.1621,-2.1536,-2.1535,-2.1528,-2.1524,-2.1564,-2.1568,-2.1582,-2.1664,-2.1665,-2.1583,-2.1586,-2.1588,-2.1589,0,0,0,0,0,0,0,-2.1483,-2.1492,-2.1579,-2.1542,-2.154,-2.1523,-2.1526,-2.1579,-2.1568,-2.1535,-2.153,-2.1535,-2.1563,-2.1578,-2.1582,-2.1666,-2.1583,-2.1587,-2.159,-2.1592,-2.1825,-2.1828,0,0,0,0,0,0,-2.1484,-2.1489,-2.1578,-2.158,-2.1503,-2.1528,-2.1531,-2.1556,-2.1567,-2.1566,-2.1538,-2.1532,-2.1572,-2.1577,-2.1583,-2.1692,-2.1588,-2.1592,-2.1595,-2.1821,-2.1826,-2.1829,0,0,0,0,0,0,-2.1481,-2.1492,-2.1577,-2.1533,-2.1543,-2.1534,-2.1561,-2.1558,-2.1573,-2.1569,-2.1567,-2.1556,-2.1569,-2.1577,-2.1643,-2.1693,-2.1594,-2.1598,-2.1817,-2.1823,-2.1827,-2.1912,0,0,0,0,0,0,-2.1478,-2.1492,-2.1527,-2.1535,-2.1546,-2.1636,-2.1565,-2.1561,-2.1581,-2.1573,-2.1585,-2.1584,-2.1567,-2.1637,-2.1647,-2.1697,-2.1602,-2.1813,-2.182,-2.1826,-2.1905,-2.192,-2.1932,0,0,0,0,0,-2.1474,-2.155,-2.153,-2.1541,-2.159,-2.1639,-2.1646,-2.1625,-2.1585,-2.1621,-2.1618,-2.1583,-2.1685,-2.1644,-2.1655,-2.1707,-2.1809,-2.1818,-2.1825,-2.1899,-2.1917,-2.1932,0,0,0,0,0,0,-2.1549,-2.1551,-2.1528,-2.1609,-2.1624,-2.1628,-2.1672,-2.1645,-2.1672,-2.1664,-2.1637,-2.1641,-2.1712,-2.1716,-2.167,-2.1797,-2.1741,-2.1751,-2.1792,-2.1809,-2.1823,-2.1821,-2.1605,0,0,0,0,0,-2.1575,-2.1616,-2.1614,-2.1686,-2.1695,-2.1682,-2.1703,-2.1686,-2.1701,-2.1707,-2.171,-2.1726,-2.1761,-2.1785,-2.1818,-2.1904,-2.1906,-2.1945,-2.1959,-2.197,-2.198,-2.2026,-2.2044,-2.1855,-2.1855,-2.1855,0,0,-2.163,-2.1635,-2.1662,-2.1701,-2.1711,-2.1753,-2.1688,-2.1736,-2.1767,-2.1715,-2.1777,-2.1779,-2.1795,-2.1872,-2.1906,-2.1878,-2.2032,-2.1981,-2.199,-2.1993,-2.2036,-2.2054,-2.207,-2.1861,-2.186,-2.1859,0,0,-2.175,-2.1758,-2.1819,-2.183,-2.1846,-2.1836,-2.1851,-2.1859,-2.1858,-2.192,-2.1881,-2.1917,-2.1979,-2.1992,-2.2007,-2.213,-2.21,-2.2142,-2.2214,-2.2259,-2.2273,-2.2287,-2.2331,-2.2347,-2.2151,-2.2151,-2.2151,0,-2.1816,-2.1878,-2.1853,-2.1903,-2.1921,-2.1875,-2.1935,-2.1947,-2.1973,-2.1987,-2.1954,-2.203,-2.2037,-2.2116,-2.2146,-2.216,-2.2175,-2.2141,-2.2273,-2.2286,-2.2298,-2.234,-2.2357,-2.2156,-2.2156,-2.2155,-2.2155,0,-2.1958,-2.2001,-2.2048,-2.2074,-2.2097,-2.2152,-2.2135,-2.2161,-2.2141,-2.2135,-2.2199,-2.2206,-2.2239,-2.2255,-2.2237,-2.2332,-2.2314,-2.2278,-2.2221,-2.2321,-2.236,-2.2376,-2.2164,-2.2162,-2.216,-2.2159,0,0,-2.2129,-2.2139,-2.2157,-2.2167,-2.2181,-2.2214,-2.2266,-2.2298,-2.2321,-2.2339,-2.2383,-2.2435,-2.2402,-2.2418,-2.24,-2.2439,-2.2537,-2.2398,-2.2398,-2.2425,-2.2642,-2.267,-2.2689,-2.2516,-2.2519,-2.2521,-2.2641,0,-2.2249,-2.234,-2.2318,-2.2408,-2.2447,-2.2403,-2.2448,-2.2461,-2.2457,-2.2489,-2.2484,-2.2522,-2.2475,-2.2484,-2.2521,-2.2517,-2.258,-2.2508,-2.2556,-2.2558,-2.2555,-2.2709,-2.2739,-2.2851,-2.2656,-2.2658,-2.266,0,-2.2402,-2.2426,-2.252,-2.2525,-2.2541,-2.2583,-2.2609,-2.2641,-2.2654,-2.2648,-2.2666,-2.264,-2.2691,-2.2632,-2.2702,-2.2654,-2.2672,-2.2673,-2.2676,-2.2681,-2.2616,-2.2719,-2.2886,-2.2904,-2.2684,-2.2682,-2.268,0,-2.2518,-2.2574,-2.2637,-2.2647,-2.2655,-2.2685,-2.269,-2.27,-2.272,-2.2743,-2.2756,-2.2785,-2.2801,-2.2823,-2.2805,-2.2764,-2.2879,-2.2818,-2.2875,-2.2876,-2.2903,-2.2901,-2.3077,-2.2913,-2.2912,-2.2912,-2.2912,0,-2.2655,-2.2714,-2.2689,-2.2728,-2.2792,-2.2766,-2.2831,-2.283,-2.2839,-2.2877,-2.2839,-2.2876,-2.2849,-2.2883,-2.2869,-2.2929,-2.2936,-2.2933,-2.2929,-2.2937,-2.2937,-2.2949,-2.2941,-2.2916,-2.2915,-2.2915,-2.2914,0,-2.2797,-2.2782,-2.2848,-2.2849,-2.2851,-2.2899,-2.29,-2.2936,-2.2928,-2.2976,-2.2986,-2.2973,-2.3011,-2.2995,-2.3034,-2.3025,-2.3102,-2.3087,-2.3098,-2.3095,-2.3153,-2.3148,-2.3343,-2.3367,-2.3186,-2.3188,-2.319,0,-2.2886,-2.293,-2.2936,-2.2959,-2.2966,-2.3003,-2.3023,-2.2998,-2.302,-2.3038,-2.3071,-2.3105,-2.3132,-2.3194,-2.3188,-2.3218,-2.3204,-2.327,-2.3208,-2.3215,-2.3206,-2.3204,-2.3208,-2.3283,-2.3285,-2.3287,-2.3288,0,-2.3046,-2.3036,-2.3066,-2.3094,-2.3118,-2.3139,-2.3156,-2.3177,-2.3152,-2.3179,-2.3217,-2.3237,-2.3277,-2.3312,-2.3337,-2.3342,-2.3312,-2.3307,-2.3322,-2.3332,-2.3336,-2.3335,-2.3133,-2.3303,-2.3302,-2.3301,-2.33,-2.3299,-2.3164,-2.3201,-2.3211,-2.3246,-2.3256,-2.3272,-2.3306,-2.3302,-2.3333,-2.3363,-2.3346,-2.339,-2.3401,-2.3433,-2.3441,-2.3475,-2.3449,-2.347,-2.3476,-2.3482,-2.349,-2.333,-2.3479,-2.3479,-2.3478,-2.3478,-2.3478,0,-2.3322,-2.3326,-2.3358,-2.3383,-2.341,-2.3378,-2.3395,-2.342,-2.3459,-2.3471,-2.3498,-2.354,-2.3573,-2.3569,-2.3599,-2.3627,-2.3614,-2.3636,-2.3634,-2.3636,-2.3511,-2.3495,-2.3646,-2.3646,-2.3646,-2.3646,-2.3646,-2.3646,-2.3408,-2.3469,-2.346,-2.3525,-2.3528,-2.3571,-2.3584,-2.3599,-2.3608,-2.3658,-2.3685,-2.3682,-2.3687,-2.3717,-2.3745,-2.3743,-2.3756,-2.3784,-2.3777,-2.3661,-2.3644,-2.3629,-2.3614,-2.3787,-2.3787,-2.3899,-2.39,-2.39]},{"header":{"parameterUnit":"m.s-1","parameterCategory":1,"la1":30.2991,"la2":30.254,"lo1":-89.0895,"lo2":-89.0444,"dy":0.0017,"dx":0.0017,"nx":28,"ny":28,"refTime":"2024-12-05T09:00:00:Z","depth":0,"parameterNumber":3,"parameterNumberName":"V-component_of_WINDS"},"data":[0,0,0,0,0,0,0,0,0,0,0,0,0,0,0,0,0,0,0,0,0,0,0,0,0,0,0,0,0,0,0,0,0,0,0,0,0,0,0,0,0,0,0,0,0,0,0,0,0,0,0,0,0,0,0,0,0,0,-8.3992,-8.3993,0,-8.4123,-8.4124,-8.4126,-8.4031,-8.4027,-8.4023,-8.4019,-8.4146,-8.4153,-8.416,0,0,0,0,0,0,0,0,0,0,0,0,0,-8.3651,-8.3658,-8.3992,-8.3993,-8.3995,-8.4123,-8.4125,-8.4126,-8.4032,-8.4027,-8.4021,-8.4017,-8.4143,-8.4152,-8.4161,0,0,0,0,0,0,0,0,0,0,0,0,0,-8.3792,-8.366,-8.3991,-8.3963,-8.3962,-8.4122,-8.4125,-8.4127,-8.4033,-8.4026,-8.402,-8.4014,-8.4141,-8.4151,-8.4162,-8.4355,0,0,-8.4195,-8.42,0,0,0,0,0,0,0,0,-8.3785,-8.3805,-8.3966,-8.3966,-8.3964,-8.4054,-8.4051,-8.4203,-8.4034,-8.4006,-8.4019,-8.4011,-8.412,-8.4132,-8.417,-8.4361,-8.4366,-8.4196,-8.4203,-8.4208,-8.4211,0,0,0,0,0,0,0,-8.3775,-8.3799,-8.4043,-8.3968,-8.3967,-8.3942,-8.3955,-8.4079,-8.4096,-8.4008,-8.4001,-8.4018,-8.4118,-8.416,-8.4173,-8.4368,-8.4196,-8.4206,-8.4212,-8.4217,-8.4721,-8.4728,0,0,0,0,0,0,-8.3769,-8.3791,-8.4039,-8.4047,-8.3858,-8.3953,-8.3968,-8.4032,-8.4095,-8.4098,-8.4024,-8.4013,-8.4144,-8.416,-8.4177,-8.4406,-8.4207,-8.4218,-8.4224,-8.4715,-8.4723,-8.473,0,0,0,0,0,0,-8.3762,-8.3792,-8.4034,-8.3918,-8.3947,-8.3965,-8.4038,-8.4038,-8.4079,-8.4107,-8.4108,-8.4064,-8.414,-8.4161,-8.4311,-8.4409,-8.4223,-8.4233,-8.4706,-8.4717,-8.4727,-8.4866,0,0,0,0,0,0,-8.3752,-8.379,-8.3865,-8.392,-8.3953,-8.4169,-8.4044,-8.4045,-8.4099,-8.4087,-8.4145,-8.4148,-8.4137,-8.4296,-8.4322,-8.4421,-8.4241,-8.4698,-8.4711,-8.4723,-8.4853,-8.488,-8.4903,0,0,0,0,0,-8.3741,-8.3898,-8.387,-8.39,-8.4048,-8.4175,-8.4194,-8.4179,-8.4108,-8.4182,-8.4199,-8.4146,-8.4394,-8.4312,-8.4341,-8.4444,-8.4692,-8.4707,-8.4722,-8.4842,-8.4875,-8.4903,0,0,0,0,0,0,-8.3851,-8.3905,-8.3874,-8.4054,-8.4111,-8.4159,-8.4253,-8.4215,-8.4292,-8.4277,-8.4254,-8.4267,-8.4425,-8.4449,-8.4357,-8.4633,-8.4531,-8.4553,-8.4612,-8.4643,-8.4668,-8.4659,-8.425,0,0,0,0,0,-8.3897,-8.3999,-8.4038,-8.4193,-8.4224,-8.4234,-8.4288,-8.4273,-8.433,-8.4353,-8.4381,-8.4436,-8.4526,-8.4586,-8.467,-8.4856,-8.4866,-8.4941,-8.4966,-8.4987,-8.5006,-8.5104,-8.5138,-8.4781,-8.4781,-8.4781,0,0,-8.3992,-8.4034,-8.4099,-8.4217,-8.4259,-8.4362,-8.4255,-8.4368,-8.4443,-8.4369,-8.4513,-8.4536,-8.4596,-8.4764,-8.484,-8.4789,-8.5107,-8.5006,-8.5023,-8.5031,-8.5124,-8.5158,-8.5188,-8.4791,-8.479,-8.4788,0,0,-8.4218,-8.426,-8.4394,-8.4439,-8.4505,-8.4511,-8.4543,-8.4597,-8.461,-8.4755,-8.4701,-8.4789,-8.4945,-8.499,-8.5033,-8.5275,-8.5229,-8.5303,-8.5434,-8.5531,-8.5559,-8.5583,-8.5669,-8.57,-8.5322,-8.5323,-8.5323,0,-8.4327,-8.4482,-8.4467,-8.4585,-8.4638,-8.4578,-8.4711,-8.4755,-8.4844,-8.4881,-8.4824,-8.5018,-8.5054,-8.5232,-8.5291,-8.5329,-8.5363,-8.5296,-8.5556,-8.5581,-8.5604,-8.5685,-8.5717,-8.5331,-8.533,-8.5329,-8.5328,0,-8.4612,-8.4721,-8.482,-8.4911,-8.4975,-8.51,-8.5101,-8.5167,-8.5146,-8.5157,-8.5304,-8.5345,-8.5437,-8.5477,-8.5457,-8.5652,-8.5619,-8.556,-8.5456,-8.5647,-8.5723,-8.5754,-8.5343,-8.534,-8.5338,-8.5336,0,0,-8.4911,-8.4993,-8.5029,-8.507,-8.5138,-8.522,-8.5342,-8.5434,-8.549,-8.5554,-8.5654,-8.5787,-8.5733,-8.5782,-8.5766,-8.5851,-8.6039,-8.578,-8.5781,-8.5826,-8.6255,-8.6299,-8.6336,-8.6008,-8.6014,-8.6019,-8.625,0,-8.514,-8.5355,-8.5344,-8.5545,-8.5644,-8.5588,-8.5693,-8.5745,-8.5759,-8.5842,-8.5855,-8.595,-8.5872,-8.5901,-8.5982,-8.5999,-8.6124,-8.5982,-8.6099,-8.6103,-8.6086,-8.6375,-8.6423,-8.6638,-8.6279,-8.6285,-8.6288,0,-8.5436,-8.5512,-8.5723,-8.5777,-8.5818,-8.5914,-8.5996,-8.6078,-8.6135,-8.6138,-8.6194,-8.6163,-8.6283,-8.6178,-8.6342,-8.6245,-8.6292,-8.6307,-8.6315,-8.6325,-8.6207,-8.6392,-8.6707,-8.6739,-8.6335,-8.6331,-8.6328,0,-8.5632,-8.5787,-8.5933,-8.597,-8.6036,-8.6104,-8.6134,-8.6186,-8.6241,-8.6313,-8.6348,-8.6432,-8.6478,-8.6542,-8.6534,-8.6458,-8.6701,-8.6595,-8.6705,-8.6705,-8.6758,-8.6755,-8.7084,-8.679,-8.6789,-8.6789,-8.6788,0,-8.5888,-8.6019,-8.6023,-8.6113,-8.6257,-8.6242,-8.6384,-8.6407,-8.6453,-8.6544,-8.65,-8.6586,-8.657,-8.6656,-8.665,-8.6786,-8.6807,-8.6811,-8.6808,-8.6815,-8.6815,-8.6845,-8.683,-8.6797,-8.6795,-8.6794,-8.6792,0,-8.6132,-8.614,-8.6295,-8.6346,-8.6362,-8.6466,-8.6507,-8.6591,-8.6601,-8.6717,-8.6743,-8.6757,-8.6855,-8.6854,-8.6964,-8.696,-8.7127,-8.7107,-8.7109,-8.7105,-8.7215,-8.7204,-8.7575,-8.7622,-8.7298,-8.7301,-8.7304,0,-8.6295,-8.6395,-8.6457,-8.6516,-8.6552,-8.6647,-8.6705,-8.6693,-8.6754,-8.6826,-8.6901,-8.6995,-8.707,-8.7229,-8.7247,-8.7332,-8.7313,-8.7437,-8.7325,-8.7329,-8.7313,-8.7308,-8.7317,-8.7458,-8.7462,-8.7465,-8.7467,0,-8.6583,-8.6582,-8.6668,-8.6756,-8.6826,-8.6893,-8.6955,-8.7005,-8.7,-8.707,-8.7172,-8.723,-8.7344,-8.7438,-8.7519,-8.7547,-8.7506,-8.7503,-8.7532,-8.754,-8.7537,-8.754,-8.7168,-8.7494,-8.7491,-8.7489,-8.7488,-8.7487,-8.6791,-8.6877,-8.6934,-8.7031,-8.7077,-8.7136,-8.7217,-8.7238,-8.7323,-8.7417,-8.7404,-8.7516,-8.7569,-8.7674,-8.7709,-8.7795,-8.7751,-8.7795,-8.7805,-8.7816,-8.7828,-8.7525,-8.781,-8.7809,-8.7808,-8.7808,-8.7807,0,-8.7076,-8.711,-8.72,-8.7289,-8.7365,-8.7323,-8.7389,-8.7454,-8.7555,-8.7608,-8.7684,-8.7799,-8.789,-8.7916,-8.8002,-8.8066,-8.8049,-8.8089,-8.8084,-8.8091,-8.7863,-8.7828,-8.8101,-8.8101,-8.8101,-8.8101,-8.8101,-8.8101,-8.7233,-8.7377,-8.7382,-8.7547,-8.7579,-8.7691,-8.7733,-8.7786,-8.7829,-8.7961,-8.8037,-8.8054,-8.8096,-8.8186,-8.8266,-8.8271,-8.8304,-8.8352,-8.8349,-8.8136,-8.8107,-8.8078,-8.8046,-8.8359,-8.836,-8.8569,-8.8571,-8.8572]}]]